Home > Weather > Rovaniemi > Past weeks

Flag for Finland Weather for the Past 2 Weeks in Rovaniemi, Finland

Now
19 °F

Ice fog.


Feels Like: 10 °F
Forecast: 18 / 31 °F
Wind: 7 mph from Southeast

Location: Rovaniemi Airport

Current Time: Feb 14, 2016 at 6:47:54 AM

Latest Report: Feb 14, 2016 at 5:50 AM


Visibility: 0 mi

Pressure: 29.74 "Hg

Humidity: 100%

Dew point: 19 °F

Location of RovaniemiLocation

Historic Weather in Rovaniemi — Graph

°F

Rovaniemi Temperature Yesterday

Maximum temperature yesterday: 30 °F (at 10:20 AM)
Minimum temperature yesterday: 25 °F (at 5:50 PM)
Average temperature yesterday: 28 °F

High & Low Weather Summary for the Past Weeks

 TemperatureHumidityPressure
High34 °F (Feb 11, 1:20 PM)100% (Jan 30, 5:20 AM)29.74 "Hg (Jan 30, 5:20 AM)
Low10 °F (Feb 4, 3:20 AM)85% (Feb 1, 6:20 PM)28.53 "Hg (Jan 30, 12:20 PM)
Average26 °F97%29.07 "Hg
* Reported Jan 30 5:20 AM — Feb 14 5:20 AM, Rovaniemi, Weather by CustomWeather, © 2016

Note: Actual official high and low records may vary slightly from our data, if they occured in-between our weather recording intervals... More about our weather records

Advertising

Rovaniemi Weather History for the Previous 24 Hours

 ConditionsComfort  
Time TempWeatherWind HumidityBarometerVisibility
5:20 AM
Sun, Feb 14
19 °FPassing clouds.7 mph100%29.74 "Hg4 mi
4:50 AM21 °FLow clouds.7 mph93%29.74 "HgN/A
4:20 AM21 °FPartly cloudy.8 mph100%29.74 "HgN/A
3:20 AM23 °FPartly cloudy.7 mph93%29.74 "HgN/A
2:50 AM23 °FPartly cloudy.6 mph93%29.74 "HgN/A
2:20 AM25 °FPartly cloudy.6 mph93%29.71 "HgN/A
1:50 AM25 °FSnow flurries. Partly cloudy.7 mph93%29.71 "HgN/A
1:20 AM25 °FSnow flurries. Partly cloudy.6 mph93%29.71 "HgN/A
12:50 AM25 °FSnow flurries. Passing clouds.8 mph93%29.71 "Hg6 mi
12:20 AM27 °FLight mixture of precip. Partly cloudy.9 mph93%29.71 "HgN/A
11:50 PM
Sat, Feb 13
27 °FLight snow. Partly cloudy.5 mph100%29.68 "HgN/A
11:20 PM27 °FLight snow. Partly cloudy.5 mph100%29.68 "HgN/A
10:50 PM27 °FSnow flurries. Partly cloudy.5 mph100%29.65 "HgN/A
10:20 PM27 °FSnow flurries. Partly cloudy.5 mph100%29.65 "HgN/A
9:50 PM28 °FLight snow. Mostly cloudy.5 mph93%29.65 "HgN/A
9:20 PM27 °FPassing clouds.5 mph100%29.65 "HgN/A
8:50 PM27 °FMostly cloudy.6 mph100%29.65 "HgN/A
8:20 PM27 °FLight mixture of precip. Passing clouds.6 mph100%29.62 "HgN/A
7:50 PM27 °FSnow. Mostly cloudy.6 mph93%29.62 "Hg1 mi
7:20 PM27 °FLight snow. Partly cloudy.5 mph93%29.62 "Hg1 mi
6:50 PM27 °FLight snow. Overcast.3 mph93%29.65 "Hg3 mi
6:20 PM27 °FPartly cloudy.5 mph93%29.65 "HgN/A
5:50 PM25 °FPartly cloudy.5 mph100%29.65 "HgN/A
5:20 PM27 °FPassing clouds.5 mph93%29.65 "HgN/A
4:50 PM27 °FPartly cloudy.3 mph93%29.62 "HgN/A
4:20 PM27 °FLight snow. Broken clouds.3 mph93%29.62 "HgN/A
3:50 PM27 °FMostly cloudy.5 mph100%29.62 "HgN/A
3:20 PM27 °FPartly sunny.6 mph100%29.62 "HgN/A
2:50 PM28 °FSnow flurries. Mostly cloudy.6 mph93%29.62 "Hg4 mi
2:20 PM27 °FSnow flurries. Partly sunny.6 mph100%29.62 "HgN/A
1:50 PM28 °FSnow flurries. Partly sunny.9 mph93%29.62 "HgN/A
1:20 PM28 °FLight snow. Partly sunny.9 mph93%29.59 "HgN/A
12:50 PM30 °FLight mixture of precip. Cloudy.8 mph93%29.59 "Hg1 mi
12:20 PM30 °FLight snow. Broken clouds.7 mph93%29.59 "Hg1 mi
11:50 AM30 °FLight snow. Cloudy.9 mph100%29.56 "Hg2 mi
11:20 AM30 °FLight snow. Broken clouds.7 mph100%29.56 "Hg2 mi
10:50 AM30 °FLight snow. Cloudy.5 mph100%29.56 "Hg2 mi
10:20 AM30 °FLight snow. Broken clouds.7 mph93%29.53 "Hg2 mi
9:50 AM28 °FLight snow. Broken clouds.5 mph100%29.53 "Hg2 mi
9:20 AM28 °FLight mixture of precip. Broken clouds.6 mph100%29.50 "Hg3 mi
8:50 AM28 °FLight mixture of precip. Mostly cloudy.8 mph100%29.50 "Hg2 mi
8:20 AM28 °FLight snow. Overcast.9 mph100%29.50 "Hg1 mi
7:50 AM28 °FLight snow. Partly cloudy.8 mph100%29.50 "Hg1 mi
7:20 AM28 °FLight snow. Partly cloudy.10 mph100%29.50 "Hg3 mi
6:50 AM28 °FSnow flurries. Partly cloudy.8 mph100%29.50 "Hg2 mi
6:20 AM28 °FSnow flurries. Mostly cloudy.9 mph100%29.50 "HgN/A
Weather by CustomWeather, © 2016

See weather overviewHow to use our weather pages